Terug naar catalogus

CZ-4 DEB

ActiefSSO
NORAD 37625·DEBRIS·🇨🇳 China

Gelanceerd Sep 3, 1990 vanaf Taiyuan Satellite Launch Center

Loading…

Volgende Passages (komende 24 uur)

TLE

VerouderendSource: Space-Track

Epoch: Sep 10, 2026, 06:46 UTC

1 37625U 90081DM  26253.28241932  .00003749  00000-0  75655-3 0  9994
2 37625  98.3502 262.1324 0003327  99.4873 260.6703 14.62038142246734

Volg CZ-4 DEB in realtime met AllMySat

Download on the App Store